{"data":{"norad_id":62957,"epoch":"2026-05-24T18:05:01.025376Z","epoch_age_seconds":96091,"freshness":"FRESH","line1":"1 62957U 25029K   26144.75348409  .00019120  00000+0  62613-3 0  9997","line2":"2 62957  53.1589 239.1264 0000814  60.6012 299.5071 15.31708940 72962","mean_motion":15.3170894,"eccentricity":8.14e-5,"inclination_deg":53.1589,"raan_deg":239.1264,"arg_perigee_deg":60.6012,"mean_anomaly_deg":299.5071,"bstar":0.00062613,"rev_number":7296,"period_min":94.012639242022,"perigee_km":470.15584926233,"apogee_km":471.27084209861,"semimajor_km":6848.8503456805,"source":"CELESTRAK","updated_at":"2026-05-25T13:38:19.825952Z"}}